This is the latest recevied weather packets stored in our database for station/object HB9FHL-13. If no packets are shown the sender has not sent any weather packets the latest 10 day(s).
| Time | Temp. | Humidity | Pressure | Rain* | Wind** | Luminosity | Snow |
|---|---|---|---|---|---|---|---|
| 1787942452 | 15° C | - | 1019.9 hPa | 1.02 mm | - | - | - |
| 1787942448 | 15° C | - | 1019.9 hPa | 1.02 mm | - | - | - |
| 1787942147 | 16.11° C | - | 1019.1 hPa | 1.02 mm | - | - | - |
| 1787941851 | 16.11° C | - | 1021.5 hPa | 1.02 mm | - | - | - |
| 1787941847 | 16.11° C | - | 1021.5 hPa | 1.02 mm | - | - | - |
| 1787941546 | 16.11° C | - | 1014.8 hPa | 1.02 mm | - | - | - |
| 1787941242 | 16.11° C | - | 1024.1 hPa | 0.76 mm | - | - | - |
| 1787940943 | 16.11° C | - | 1021.1 hPa | 0.76 mm | - | - | - |
| 1787940645 | 15.56° C | - | 1017.9 hPa | 0.76 mm | - | - | - |
| 1787940641 | 15.56° C | - | 1017.9 hPa | 0.76 mm | - | - | - |
| 1787940341 | 15.56° C | - | 1025.3 hPa | 0.76 mm | - | - | - |
| 1787940044 | 15.56° C | - | 1010.6 hPa | 0.76 mm | - | - | - |
| 1787940040 | 15.56° C | - | 1010.6 hPa | 0.76 mm | - | - | - |
| 1787939740 | 16.11° C | - | 1017.1 hPa | 0.76 mm | - | - | - |
| 1787939444 | 15.56° C | - | 1016.7 hPa | 0.76 mm | - | - | - |
| 1787939440 | 15.56° C | - | 1016.7 hPa | 0.76 mm | - | - | - |
| 1787939139 | 15.56° C | - | 1017.5 hPa | 0.76 mm | - | - | - |
| 1787938839 | 16.11° C | - | 1022.3 hPa | 0.76 mm | - | - | - |
| 1787938542 | 16.11° C | - | 1021.3 hPa | 0.76 mm | - | - | - |
| 1787938538 | 16.11° C | - | 1021.3 hPa | 0.76 mm | - | - | - |
| 1787938237 | 16.11° C | - | 1021.1 hPa | 0.76 mm | - | - | - |
| 1787937935 | 16.11° C | - | 1020.2 hPa | 0.76 mm | - | - | - |
| 1787937632 | 16.11° C | - | 1020.5 hPa | 0.76 mm | - | - | - |
| 1787937332 | 15° C | - | 1017.4 hPa | 0.76 mm | - | - | - |
| 1787937031 | 15.56° C | - | 1019.7 hPa | 0.76 mm | - | - | - |
* Rain since midnight (hover to see other rain measurements)
** Current wind speed in m/s (hover to see current wind gust speed)